Weather History for Hoquiam, WA

Change the Weather History Date:

Thursday, August 1, 2013

  Actual Average Record
Temperature  
Mean Temperature 60 °F 61 °F  
Max Temperature 64 °F 67 °F 78 °F (1993)
Min Temperature 56 °F 54 °F 44 °F (1976)
Degree Days  
Heating Degree Days 5 4  
Month to date heating degree days 5 4  
Since 1 June heating degree days 327 414  
Cooling Degree Days 0 0  
Month to date cooling degree days 0 0  
Year to date cooling degree days 11 9  
Since 1 June cooling degree days 8 8  
Growing Degree Days 10 (Base 50)    
Moisture  
Dew Point 56 °F    
Average Humidity 89    
Maximum Humidity 100    
Minimum Humidity 78    
Precipitation  
Precipitation 0.00 in 0.03 in 0.84 in (1964)
Month to date precipitation 0.00 0.03  
Year to date precipitation 32.56 36.33  
Sea Level Pressure  
Sea Level Pressure 30.09 in    
Wind  
Wind Speed 7 mph (SW)    
Max Wind Speed 15 mph    
Max Gust Speed 18 mph    
Visibility 8 miles    
Events      
T = Trace of Precipitation, MM = Missing Value Source: NWS Daily Summary

Daily Weather History Graph

Daily Weather History Graph

Search for Another Location

Airport:

Trip Planner

Search our weather history database for the weather conditions in past years. The results will help you decide how hot, cold, wet, or windy it might be!

Date:

Astronomy

Aug. 01, 2013 Rise Set
Actual Time 5:55 AM PDT 8:47 PM PDT
Civil Twilight 5:20 AM PDT 9:22 PM PDT
Nautical Twilight 4:34 AM PDT 10:07 PM PDT
Astronomical Twilight 3:40 AM PDT 11:01 PM PDT
Moon 1:34 AM PDT (8/1) 5:03 PM PDT (8/1)
Length of Visible Light 16h 02m
Length of Day
14h 51m
Waning Crescent, 22% of the Moon is Illuminated
Aug 1
Waning Crescent
Aug 6
New
Aug 14
First Quarter
Aug 20
Full
Aug 28
Last Quarter

Hourly Weather History & Observations

Time (PDT) Temp. Dew Point Humidity Pressure Visibility Wind Dir Wind Speed Gust Speed Precip Events Conditions
12:53 AM 57.0 °F 53.1 °F 87% 30.10 in 10.0 mi SW 8.1 mph - N/A   Overcast
1:33 AM 57.2 °F 53.6 °F 88% 30.08 in 10.0 mi WSW 3.5 mph - N/A   Overcast
1:53 AM 57.0 °F 53.1 °F 87% 30.09 in 10.0 mi West 3.5 mph - N/A   Overcast
2:53 AM 57.0 °F 52.0 °F 83% 30.08 in 10.0 mi WSW 5.8 mph - N/A   Overcast
3:33 AM 57.2 °F 53.6 °F 88% 30.07 in 10.0 mi WSW 4.6 mph - N/A   Overcast
3:53 AM 57.0 °F 53.1 °F 87% 30.08 in 10.0 mi SW 4.6 mph - N/A   Overcast
4:10 AM 57.2 °F 53.6 °F 88% 30.07 in 10.0 mi South 4.6 mph - N/A   Overcast
4:28 AM 57.2 °F 53.6 °F 88% 30.07 in 10.0 mi South 4.6 mph - N/A   Overcast
4:53 AM 57.0 °F 53.1 °F 87% 30.08 in 10.0 mi SSW 5.8 mph - N/A   Overcast
5:12 AM 57.2 °F 53.6 °F 88% 30.07 in 9.0 mi WSW 3.5 mph - N/A   Overcast
5:20 AM 57.2 °F 53.6 °F 88% 30.07 in 10.0 mi SW 4.6 mph - N/A   Overcast
5:49 AM 57.2 °F 53.6 °F 88% 30.07 in 5.0 mi SSW 5.8 mph - N/A   Overcast
5:53 AM 55.9 °F 54.0 °F 93% 30.08 in 4.0 mi SSW 4.6 mph - N/A   Overcast
6:03 AM 55.4 °F 55.4 °F 100% 30.07 in 6.0 mi South 3.5 mph - N/A   Overcast
6:30 AM 55.4 °F 55.4 °F 100% 30.08 in 3.0 mi SW 4.6 mph - N/A   Overcast
6:37 AM 55.4 °F 55.4 °F 100% 30.08 in 2.0 mi SSW 5.8 mph - N/A   Overcast
6:53 AM 55.9 °F 55.0 °F 97% 30.09 in 2.5 mi SSW 5.8 mph - N/A   Overcast
6:58 AM 55.4 °F 55.4 °F 100% 30.08 in 3.0 mi SW 4.6 mph - N/A   Overcast
7:12 AM 55.4 °F 55.4 °F 100% 30.08 in 2.0 mi Calm Calm - N/A   Overcast
7:26 AM 55.4 °F 55.4 °F 100% 30.08 in 6.0 mi Calm Calm - N/A   Overcast
7:36 AM 55.4 °F 55.4 °F 100% 30.08 in 2.5 mi Calm Calm - N/A   Overcast
7:44 AM 55.4 °F 55.4 °F 100% 30.08 in 1.2 mi Calm Calm - N/A   Overcast
7:53 AM 55.9 °F 55.9 °F 100% 30.09 in 1.8 mi SSW 3.5 mph - N/A   Overcast
8:13 AM 57.2 °F 55.4 °F 94% 30.08 in 3.0 mi Calm Calm - N/A   Overcast
8:53 AM 57.0 °F 55.0 °F 93% 30.09 in 7.0 mi Calm Calm - N/A   Overcast
9:20 AM 57.2 °F 55.4 °F 94% 30.07 in 1.8 mi Calm Calm - N/A   Overcast
9:26 AM 57.2 °F 55.4 °F 94% 30.07 in 3.0 mi Calm Calm - N/A   Overcast
9:53 AM 57.9 °F 55.9 °F 93% 30.08 in 10.0 mi Calm Calm - N/A   Overcast
10:06 AM 57.2 °F 55.4 °F 94% 30.07 in 10.0 mi Calm Calm - N/A   Overcast
10:53 AM 60.1 °F 55.9 °F 86% 30.09 in 10.0 mi West 3.5 mph - N/A   Overcast
11:01 AM 59.0 °F 55.4 °F 88% 30.07 in 10.0 mi West 4.6 mph - N/A   Overcast
11:53 AM 60.1 °F 55.9 °F 86% 30.09 in 10.0 mi WSW 6.9 mph - N/A   Overcast
12:08 PM 60.8 °F 57.2 °F 88% 30.08 in 10.0 mi SW 10.4 mph - N/A   Overcast
12:53 PM 61.0 °F 57.0 °F 87% 30.11 in 10.0 mi SW 11.5 mph - N/A   Overcast
1:53 PM 62.1 °F 55.9 °F 80% 30.11 in 10.0 mi SW 11.5 mph - N/A   Overcast
2:22 PM 62.6 °F 55.4 °F 77% 30.09 in 10.0 mi SW 12.7 mph - N/A   Overcast
2:53 PM 63.0 °F 55.9 °F 78% 30.10 in 10.0 mi SW 11.5 mph - N/A   Overcast
3:53 PM 64.0 °F 57.0 °F 78% 30.10 in 10.0 mi SW 9.2 mph - N/A   Overcast
4:28 PM 62.6 °F 55.4 °F 77% 30.08 in 10.0 mi SSW 12.7 mph - N/A   Overcast
4:53 PM 62.1 °F 57.0 °F 84% 30.09 in 10.0 mi SSW 11.5 mph - N/A   Overcast
5:53 PM 61.0 °F 57.0 °F 87% 30.09 in 10.0 mi SW 10.4 mph - N/A   Overcast
6:41 PM 60.8 °F 57.2 °F 88% 30.09 in 10.0 mi SSW 11.5 mph - N/A   Overcast
6:53 PM 60.1 °F 57.0 °F 90% 30.10 in 10.0 mi SW 11.5 mph - N/A   Overcast
7:03 PM 60.8 °F 57.2 °F 88% 30.08 in 10.0 mi SW 12.7 mph - N/A   Overcast
7:53 PM 57.9 °F 57.0 °F 97% 30.10 in 2.5 mi SSW 11.5 mph - N/A   Overcast
8:07 PM 57.2 °F 57.2 °F 100% 30.09 in 6.0 mi SW 9.2 mph - N/A   Overcast
8:19 PM 57.2 °F 57.2 °F 100% 30.09 in 5.0 mi SW 8.1 mph - N/A   Overcast
8:35 PM 57.2 °F 57.2 °F 100% 30.09 in 10.0 mi SSW 8.1 mph - N/A   Overcast
8:53 PM 59.0 °F 57.0 °F 93% 30.11 in 10.0 mi SW 6.9 mph - N/A   Overcast
9:51 PM 57.2 °F 57.2 °F 100% 30.09 in 10.0 mi WSW 4.6 mph - N/A   Overcast
9:53 PM 59.0 °F 57.0 °F 93% 30.11 in 10.0 mi WSW 5.8 mph - N/A   Overcast
10:04 PM 59.0 °F 57.2 °F 94% 30.10 in 10.0 mi SW 5.8 mph - N/A   Overcast
10:48 PM 59.0 °F 57.2 °F 94% 30.10 in 10.0 mi South 6.9 mph - N/A   Overcast
10:53 PM 59.0 °F 57.0 °F 93% 30.12 in 10.0 mi South 5.8 mph - N/A   Overcast
11:34 PM 59.0 °F 57.2 °F 94% 30.10 in 9.0 mi South 6.9 mph - N/A   Overcast
11:37 PM 57.2 °F 57.2 °F 100% 30.10 in 9.0 mi SSW 5.8 mph - N/A   Overcast
11:48 PM 57.2 °F 57.2 °F 100% 30.10 in 10.0 mi SSW 5.8 mph - N/A   Overcast
11:53 PM 57.9 °F 57.0 °F 97% 30.12 in 10.0 mi SSW 5.8 mph - N/A   Overcast